IRIDIUM 67 [-]

Last updated on July 3, 2018, 12:20 a.m. UTC

1 25290U 98021F   18183.41372486  .16129305 -15944-5  18798-3 0  9996
2 25290  86.3716  62.7920 0043479  96.5457 264.0806 16.45411698 59814

Satellite is not in orbit.